TimeCST,TemperatureF,Dew PointF,Humidity,Sea Level PressureIn,VisibilityMPH,Wind Direction,Wind SpeedMPH,Gust SpeedMPH,PrecipitationIn,Events,Conditions,WindDirDegrees,DateUTC
12:53 AM,19.9,15.1,81,30.36,10.0,NNW,8.1,-,N/A,,Mostly Cloudy,330,2013-03-02 06:53:00
1:53 AM,21.0,17.1,85,30.35,10.0,NNW,8.1,-,N/A,,Overcast,340,2013-03-02 07:53:00
2:31 AM,21.2,17.6,86,30.31,10.0,NNW,8.1,-,N/A,,Overcast,340,2013-03-02 08:31:00
2:53 AM,21.9,17.1,82,30.35,10.0,NNW,8.1,-,N/A,,Overcast,340,2013-03-02 08:53:00
3:53 AM,21.9,17.1,82,30.35,10.0,NNW,8.1,-,N/A,,Overcast,340,2013-03-02 09:53:00
4:53 AM,23.0,16.0,74,30.35,10.0,NNW,8.1,-,N/A,,Overcast,340,2013-03-02 10:53:00
5:53 AM,23.0,15.1,72,30.37,10.0,NNW,9.2,-,N/A,,Overcast,330,2013-03-02 11:53:00
6:53 AM,21.9,14.0,72,30.38,10.0,NNW,11.5,-,N/A,,Overcast,330,2013-03-02 12:53:00
7:53 AM,21.9,14.0,72,30.39,10.0,NNW,12.7,-,N/A,,Overcast,340,2013-03-02 13:53:00
8:53 AM,21.9,14.0,72,30.39,10.0,NNW,9.2,-,N/A,,Overcast,330,2013-03-02 14:53:00
9:53 AM,23.0,15.1,72,30.39,10.0,NW,9.2,-,N/A,,Overcast,320,2013-03-02 15:53:00
10:28 AM,23.0,15.8,74,30.35,10.0,WNW,3.5,-,N/A,,Scattered Clouds,300,2013-03-02 16:28:00
10:53 AM,24.1,15.1,69,30.40,10.0,NW,8.1,-,N/A,,Partly Cloudy,310,2013-03-02 16:53:00
11:53 AM,25.0,15.1,66,30.38,10.0,NNW,5.8,-,N/A,,Clear,340,2013-03-02 17:53:00
12:53 PM,27.0,17.1,66,30.35,10.0,NNW,3.5,-,0.00,Snow,Light Snow,330,2013-03-02 18:53:00
1:53 PM,27.0,17.1,66,30.33,9.0,West,3.5,-,0.00,Snow,Light Snow,280,2013-03-02 19:53:00
2:53 PM,28.0,16.0,61,30.32,9.0,WNW,4.6,-,0.00,Snow,Light Snow,300,2013-03-02 20:53:00
3:53 PM,28.9,17.1,61,30.30,10.0,SW,3.5,-,0.00,,Clear,230,2013-03-02 21:53:00
4:53 PM,28.9,18.0,64,30.30,9.0,SSW,4.6,-,N/A,,Clear,210,2013-03-02 22:53:00
5:53 PM,27.0,16.0,63,30.29,9.0,SSE,3.5,-,N/A,,Clear,160,2013-03-02 23:53:00
7:53 PM,25.0,17.1,72,30.27,10.0,SSE,4.6,-,N/A,,Overcast,150,2013-03-03 01:53:00
8:53 PM,26.1,18.0,71,30.26,10.0,SSW,4.6,-,N/A,,Overcast,200,2013-03-03 02:53:00
9:53 PM,26.1,19.0,75,30.25,8.0,South,4.6,-,N/A,,Overcast,180,2013-03-03 03:53:00
10:53 PM,26.1,19.0,75,30.22,8.0,SSE,5.8,-,N/A,,Overcast,150,2013-03-03 04:53:00
11:53 PM,26.1,19.9,78,30.22,7.0,South,4.6,-,N/A,,Overcast,170,2013-03-03 05:53:00